Orbital Elements at Epoch 2459000.5 (2020-May-31.0) TDB
Reference: JPL 9 (heliocentric ecliptic J2000)
Element | Value | Uncertainty (1-sigma) | Units |
e | .1916577933536055 | 1.1957e-07 | |
a | 2.184779967199432 | 4.6482e-08 | au |
q | 1.766049859722826 | 2.9364e-07 | au |
i | 4.437051468023698 | 7.9639e-06 | deg |
node | 331.3531911097087 | 8.6247e-05 | deg |
peri | 339.7128198242786 | 9.1232e-05 | deg |
M | 274.3676934568991 | 4.5017e-05 | deg |
tp | 2459281.072515370559 (2021-Mar-07.57251537) | 0.00015559 | TDB |
period | 1179.53269754053 3.23 | 3.7642e-05 1.031e-07 | d yr |
n | .3052056129945733 | 9.74e-09 | deg/d |
Q | 2.603510074676038 | 5.5391e-08 | au |
|
| | Orbit Determination Parameters
Additional Information
|